When you browse on this site, cookies collect data to enhance your experience and personalize the content and advertising you see.
Visit our Privacy Policy to learn more. By continuing to use the site, you agree to this use of cookies and data.
  • In Belgium
  • List of Countries
  • For 7 days
  • Water Temperature
  • Weather Map
  • Weather Widgets
  • user-avatar
    Login

    Hourly Weather Siempang

    Today, 6 June, Saturday

    Time Temperature Precipitation Wind Pressure Humidity
    00:00 +25°C° 0 mm 0 mps 750 mmHg 92%
    01:00 +25°C° 0 mm 0 mps 750 mmHg 92%
    02:00 +25°C° 0 mm 0 mps 750 mmHg 93%
    03:00 +25°C° 0 mm 0 mps 750 mmHg 94%
    04:00 +24°C° 0 mm 0 mps 749 mmHg 95%
    05:00 +25°C° 0 mm 0 mps 750 mmHg 93%
    06:00 +27°C° 0 mm 1 mps 750 mmHg 91%
    07:00 +28°C° 0 mm 1 mps 751 mmHg 90%
    08:00 +30°C° 0 mm 1 mps 751 mmHg 81%
    09:00 +32°C° 0 mm 1 mps 751 mmHg 72%
    10:00 +34°C° 0 mm 1 mps 751 mmHg 63%
    11:00 +34°C° 0.1 mm 1 mps 750 mmHg 61%
    12:00 +35°C° 0.1 mm 1 mps 750 mmHg 58%
    13:00 +36°C° 0 mm 1 mps 750 mmHg 57%
    14:00 +35°C° 0.5 mm 1 mps 749 mmHg 61%
    15:00 +34°C° 0.5 mm 1 mps 748 mmHg 64%
    16:00 +34°C° 0.5 mm 1 mps 747 mmHg 67%
    17:00 +32°C° 0.5 mm 1 mps 748 mmHg 74%
    18:00 +31°C° 0.5 mm 1 mps 748 mmHg 80%
    19:00 +29°C° 0.5 mm 1 mps 749 mmHg 86%
    20:00 +29°C° 0.9 mm 1 mps 749 mmHg 89%
    21:00 +28°C° 0.9 mm 1 mps 750 mmHg 91%
    22:00 +28°C° 0.9 mm 1 mps 750 mmHg 94%
    23:00 +27°C° 3.7 mm 1 mps 750 mmHg 95%

    Tomorrow, 7 June, Sunday

    Time Temperature Precipitation Wind Pressure Humidity
    00:00 +27°C° 3.7 mm 2 mps 750 mmHg 96%
    01:00 +26°C° 3.7 mm 2 mps 750 mmHg 97%
    02:00 +26°C° 4.2 mm 2 mps 750 mmHg 98%
    03:00 +26°C° 4.2 mm 1 mps 750 mmHg 98%
    04:00 +26°C° 4.2 mm 1 mps 750 mmHg 98%
    05:00 +26°C° 7 mm 1 mps 750 mmHg 98%
    06:00 +25°C° 7 mm 1 mps 751 mmHg 99%
    07:00 +25°C° 7 mm 1 mps 751 mmHg 99%
    08:00 +25°C° 7.6 mm 1 mps 751 mmHg 98%
    09:00 +26°C° 7.6 mm 1 mps 751 mmHg 96%
    10:00 +26°C° 7.6 mm 1 mps 752 mmHg 95%
    11:00 +27°C° 0 mm 1 mps 751 mmHg 88%
    12:00 +29°C° 0 mm 1 mps 750 mmHg 80%
    13:00 +30°C° 0 mm 1 mps 750 mmHg 73%
    14:00 +30°C° 0 mm 1 mps 749 mmHg 72%
    15:00 +30°C° 0 mm 1 mps 748 mmHg 71%
    16:00 +31°C° 0 mm 1 mps 747 mmHg 70%
    17:00 +29°C° 0 mm 1 mps 748 mmHg 76%
    18:00 +26°C° 0 mm 0 mps 748 mmHg 82%
    19:00 +25°C° 0 mm 0 mps 748 mmHg 88%
    20:00 +25°C° 0 mm 0 mps 749 mmHg 88%
    21:00 +24°C° 0 mm 0 mps 749 mmHg 89%
    22:00 +24°C° 0 mm 0 mps 750 mmHg 89%
    23:00 +24°C° 0 mm 0 mps 750 mmHg 90%

    Day after tomorrow, 8 June, Monday

    Time Temperature Precipitation Wind Pressure Humidity
    00:00 +24°C° 0 mm 0 mps 750 mmHg 91%
    01:00 +23°C° 0 mm 0 mps 749 mmHg 92%
    02:00 +23°C° 0.1 mm 0 mps 749 mmHg 93%
    03:00 +23°C° 0.1 mm 0 mps 749 mmHg 94%
    04:00 +23°C° 0.1 mm 0 mps 749 mmHg 95%
    05:00 +24°C° 0 mm 0 mps 749 mmHg 91%
    06:00 +25°C° 0 mm 0 mps 750 mmHg 88%
    07:00 +26°C° 0 mm 0 mps 750 mmHg 85%
    08:00 +28°C° 0 mm 0 mps 750 mmHg 78%
    09:00 +30°C° 0 mm 0 mps 750 mmHg 70%
    10:00 +32°C° 0 mm 0 mps 750 mmHg 63%
    11:00 +34°C° 0.5 mm 1 mps 750 mmHg 65%
    12:00 +34°C° 0.5 mm 1 mps 749 mmHg 66%
    13:00 +34°C° 0.5 mm 1 mps 749 mmHg 68%
    14:00 +33°C° 0.8 mm 1 mps 748 mmHg 70%
    15:00 +33°C° 0.8 mm 1 mps 748 mmHg 72%
    16:00 +33°C° 0.8 mm 1 mps 747 mmHg 74%
    17:00 +31°C° 0.2 mm 1 mps 748 mmHg 79%
    18:00 +28°C° 0.2 mm 0 mps 748 mmHg 84%
    19:00 +26°C° 0.2 mm 0 mps 748 mmHg 89%
    20:00 +26°C° 0.2 mm 0 mps 749 mmHg 90%
    21:00 +26°C° 0.2 mm 0 mps 750 mmHg 91%
    22:00 +25°C° 0.2 mm 0 mps 750 mmHg 92%
    23:00 +25°C° 0.1 mm 0 mps 750 mmHg 92%

    9 June, Tuesday

    Time Temperature Precipitation Wind Pressure Humidity
    00:00 +25°C° 0.1 mm 0 mps 750 mmHg 93%
    01:00 +24°C° 0.1 mm 0 mps 750 mmHg 93%
    02:00 +24°C° 0 mm 0 mps 749 mmHg 94%
    03:00 +24°C° 0 mm 0 mps 749 mmHg 94%
    04:00 +24°C° 0 mm 0 mps 749 mmHg 95%
    05:00 +25°C° 0 mm 0 mps 750 mmHg 92%
    06:00 +25°C° 0 mm 0 mps 750 mmHg 90%
    07:00 +26°C° 0 mm 0 mps 750 mmHg 87%
    08:00 +28°C° 0 mm 0 mps 750 mmHg 78%
    09:00 +31°C° 0 mm 0 mps 750 mmHg 69%
    10:00 +33°C° 0 mm 0 mps 750 mmHg 59%
    11:00 +35°C° 0 mm 1 mps 750 mmHg 57%
    12:00 +36°C° 0 mm 1 mps 749 mmHg 54%
    13:00 +37°C° 0 mm 1 mps 749 mmHg 52%
    14:00 +36°C° 0.2 mm 1 mps 748 mmHg 58%
    15:00 +36°C° 0.2 mm 2 mps 748 mmHg 63%
    16:00 +35°C° 0.2 mm 2 mps 747 mmHg 68%
    17:00 +32°C° 0.1 mm 1 mps 748 mmHg 76%
    18:00 +30°C° 0.1 mm 1 mps 748 mmHg 84%
    19:00 +27°C° 0.1 mm 0 mps 748 mmHg 91%
    20:00 +26°C° 0 mm 0 mps 749 mmHg 91%
    21:00 +26°C° 0 mm 0 mps 749 mmHg 91%
    22:00 +25°C° 0 mm 0 mps 750 mmHg 91%
    23:00 +25°C° 0.1 mm 0 mps 750 mmHg 92%

    10 June, Wednesday

    Time Temperature Precipitation Wind Pressure Humidity
    00:00 +25°C° 0.1 mm 0 mps 749 mmHg 92%
    01:00 +25°C° 0.1 mm 0 mps 749 mmHg 93%
    02:00 +25°C° 0.4 mm 0 mps 749 mmHg 94%
    03:00 +24°C° 0.4 mm 0 mps 749 mmHg 95%
    04:00 +24°C° 0.4 mm 0 mps 749 mmHg 96%
    05:00 +25°C° 0 mm 0 mps 749 mmHg 95%
    06:00 +25°C° 0 mm 0 mps 750 mmHg 95%
    07:00 +26°C° 0 mm 0 mps 750 mmHg 94%
    08:00 +28°C° 0.4 mm 0 mps 750 mmHg 84%
    09:00 +30°C° 0.4 mm 0 mps 751 mmHg 75%
    10:00 +32°C° 0.4 mm 0 mps 751 mmHg 66%
    11:00 +35°C° 0.1 mm 1 mps 750 mmHg 63%
    12:00 +35°C° 0.1 mm 1 mps 749 mmHg 60%
    13:00 +35°C° 0.1 mm 1 mps 749 mmHg 58%
    14:00 +35°C° 0.2 mm 1 mps 748 mmHg 60%
    15:00 +35°C° 0.2 mm 1 mps 748 mmHg 63%
    16:00 +34°C° 0.2 mm 1 mps 747 mmHg 66%
    17:00 +33°C° 0.2 mm 1 mps 747 mmHg 74%
    18:00 +31°C° 0.2 mm 1 mps 748 mmHg 82%
    19:00 +29°C° 0.2 mm 1 mps 748 mmHg 91%
    20:00 +28°C° 1 mm 1 mps 749 mmHg 92%
    21:00 +28°C° 1 mm 1 mps 750 mmHg 94%
    22:00 +26°C° 1 mm 0 mps 750 mmHg 95%
    23:00 +27°C° 1 mm 1 mps 750 mmHg 95%

    11 June, Thursday

    Time Temperature Precipitation Wind Pressure Humidity
    00:00 +27°C° 1 mm 1 mps 750 mmHg 96%
    01:00 +27°C° 1 mm 1 mps 749 mmHg 96%
    02:00 +27°C° 0.1 mm 1 mps 749 mmHg 97%
    03:00 +24°C° 0.1 mm 0 mps 749 mmHg 97%
    04:00 +24°C° 0.1 mm 0 mps 749 mmHg 98%
    05:00 +24°C° 0 mm 0 mps 749 mmHg 97%
    06:00 +25°C° 0 mm 0 mps 750 mmHg 97%
    07:00 +27°C° 0 mm 1 mps 750 mmHg 96%
    08:00 +29°C° 0.7 mm 1 mps 750 mmHg 91%
    09:00 +30°C° 0.7 mm 1 mps 750 mmHg 86%
    10:00 +31°C° 0.7 mm 1 mps 750 mmHg 81%
    11:00 +33°C° 0.1 mm 1 mps 749 mmHg 71%
    12:00 +34°C° 0.1 mm 1 mps 749 mmHg 62%
    13:00 +36°C° 0.1 mm 1 mps 748 mmHg 53%
    14:00 +36°C° 0.3 mm 1 mps 748 mmHg 55%
    15:00 +35°C° 0.3 mm 1 mps 747 mmHg 57%
    16:00 +35°C° 0.3 mm 1 mps 747 mmHg 59%
    17:00 +33°C° 0.4 mm 1 mps 747 mmHg 70%
    18:00 +30°C° 0.4 mm 1 mps 748 mmHg 81%
    19:00 +26°C° 0.4 mm 0 mps 748 mmHg 92%
    20:00 +26°C° 0 mm 0 mps 748 mmHg 93%
    21:00 +25°C° 0 mm 0 mps 749 mmHg 93%
    22:00 +25°C° 0 mm 0 mps 749 mmHg 94%
    23:00 +25°C° 0 mm 0 mps 749 mmHg 94%
    Show more